User: anonymous   Login
Location: Unspecified
(20.0000°S, 0.0000°E)
Time: 07:47:35
(UTC+00:00)
Language:

BEESAT - Orbit

View from above orbital plane
View from above orbital plane
View from above satellite
View from above satellite

Ground track
Ground track

The orbit data is extracted from the following two-line orbital elements,

1 35933U 09051C   19286.46405063  .00000112  00000-0  36213-4 0  9995
2 35933  98.6004  97.7449 0005954 170.1822 189.9492 14.56402485533884
Epoch (UTC): 13 October 2019 11:08:13
Eccentricity: 0.0005954
inclination: 98.6004°
perigee height: 700 km
apogee height: 709 km
right ascension of ascending node: 97.7449°
argument of perigee: 170.1822°
revolutions per day: 14.56402485
mean anomaly at epoch: 189.9492°
orbit number at epoch: 53388

The dashed part of the orbit path shows where the satellite is in the earth's shadow,  

DLR